Location: Hohenfelde
(53.8441°N, 9.6220°E)
Time: 10:55:33
(UTC+00:00)

Okean 3 - Pass Details

Date: 14 July 2020
Orbit: 576 x 601 km, 82.5° (Epoch: 13 August)

Event Time Altitude Azimuth Distance (km) Brightness Sun altitude
Rises 01:48:28 0° 343° (NNW) 2,808 7.6 -8.6°
Reaches altitude 10° 01:50:45 10° 336° (NNW) 1,905 6.5 -8.5°
Maximum altitude 01:54:40 39° 267° (W) 878 4.1 -8.1°
Drops below altitude 10° 01:58:34 10° 199° (SSW) 1,899 5.4 -7.8°
Enters shadow 01:58:49 - 198° (SSW) 1,992 5.6 -7.8°
